TimeMST,TemperatureF,Dew PointF,Humidity,Sea Level PressureIn,VisibilityMPH,Wind Direction,Wind SpeedMPH,Gust SpeedMPH,PrecipitationIn,Events,Conditions,WindDirDegrees,DateUTC
12:53 AM,48.0,23.0,37,29.83,10.0,SSW,9.2,-,N/A,,Clear,200,2013-04-25 07:53:00
1:53 AM,48.9,24.1,38,29.82,10.0,South,5.8,-,N/A,,Clear,190,2013-04-25 08:53:00
2:53 AM,48.0,27.0,44,29.82,10.0,SSW,5.8,-,N/A,,Clear,200,2013-04-25 09:53:00
4:53 AM,42.1,24.1,49,29.84,10.0,South,5.8,-,N/A,,Clear,190,2013-04-25 11:53:00
5:53 AM,43.0,23.0,45,29.84,10.0,South,5.8,-,N/A,,Clear,190,2013-04-25 12:53:00
6:53 AM,48.0,24.1,39,29.84,10.0,SSW,5.8,-,N/A,,Clear,200,2013-04-25 13:53:00
7:53 AM,57.9,21.9,25,29.83,10.0,ESE,6.9,-,N/A,,Clear,120,2013-04-25 14:53:00
8:53 AM,61.0,21.0,21,29.83,10.0,SE,12.7,19.6,N/A,,Clear,130,2013-04-25 15:53:00
9:53 AM,64.9,19.9,18,29.83,10.0,SE,16.1,26.5,N/A,,Clear,130,2013-04-25 16:53:00
10:38 AM,62.6,19.4,19,30.02,10.0,SSW,12.7,19.6,N/A,,Mostly Cloudy,210,2013-04-25 17:38:00
10:53 AM,62.1,21.0,21,29.86,10.0,Calm,Calm,-,N/A,,Scattered Clouds,0,2013-04-25 17:53:00
11:53 AM,66.0,19.0,17,29.84,10.0,SE,19.6,31.1,N/A,,Scattered Clouds,140,2013-04-25 18:53:00
12:53 PM,64.0,17.1,16,29.84,10.0,SE,16.1,-,N/A,,Mostly Cloudy,140,2013-04-25 19:53:00
1:27 PM,60.8,21.2,22,30.01,10.0,Variable,5.8,20.7,0.00,Rain-Thunderstorm,Light Thunderstorms and Rain,0,2013-04-25 20:27:00
1:49 PM,62.6,21.2,20,30.02,10.0,NE,4.6,-,0.00,,Mostly Cloudy,50,2013-04-25 20:49:00
1:53 PM,62.1,21.0,21,29.87,10.0,South,8.1,-,0.00,,Mostly Cloudy,180,2013-04-25 20:53:00
2:53 PM,64.0,21.9,20,29.86,10.0,South,5.8,-,N/A,,Scattered Clouds,180,2013-04-25 21:53:00
3:53 PM,63.0,27.0,26,29.87,10.0,WSW,8.1,-,N/A,,Mostly Cloudy,240,2013-04-25 22:53:00
4:53 PM,60.1,37.0,42,29.90,10.0,South,6.9,17.3,0.01,,Scattered Clouds,170,2013-04-25 23:53:00
5:53 PM,63.0,28.0,27,29.89,10.0,SW,8.1,-,N/A,,Clear,220,2013-04-26 00:53:00
6:53 PM,60.1,28.0,30,29.90,10.0,SW,6.9,-,N/A,,Clear,220,2013-04-26 01:53:00
7:53 PM,57.0,27.0,32,29.91,10.0,SW,8.1,-,N/A,,Clear,220,2013-04-26 02:53:00
8:53 PM,55.0,26.1,33,29.95,10.0,SSW,10.4,-,N/A,,Clear,210,2013-04-26 03:53:00
9:53 PM,53.1,27.0,37,29.96,10.0,SSW,9.2,-,N/A,,Clear,200,2013-04-26 04:53:00
10:53 PM,52.0,30.0,43,29.98,10.0,South,6.9,-,N/A,,Clear,180,2013-04-26 05:53:00
11:53 PM,52.0,28.0,40,29.99,10.0,SSE,8.1,-,N/A,,Clear,150,2013-04-26 06:53:00